If you wish to contribute or participate in the discussions about articles you are invited to join SKYbrary as a registered user

 Actions

Almería International Airport

From SKYbrary Wiki

LEAM
Airport
ICAO: LEAM – IATA: LEI
Summary
Name Almería International Airport
Region Europe
Territory Spain ES.gif
Location , Andalucia
Serving Almeria
Elevation 21.336 m
70 ft
70 ft21.336 m
Type medium airport
Coordinates 36° 50' 38.1696", -2° 22' 12.3492"
Close to Alboran Sea
Runways
Designator Length Width Surface ROPS
8/26 3200 m10,498.688 ft 45 m147.638 ft ASP no/no


METAR
Observation LEAM 260700Z 05009KT 9999 FEW020 SCT050 25/18 Q1024
Station Almeria / Aeropuerto
Date/Time 26 September 2018 07:00:00
Wind direction 50°
Wind speed 09 kts
Lowest cloud amount few clouds
Temperature 25°C
Dew point 18°C
Humidity 65%
QNH 1024 hPa
Weather condition n/a